Woodward, OK

1:58 PM CDT on September 27, 2016 (GMT -0500)
West Woodward

Weather History for KWWR - February, 2014

Change the Weather History Date:

Tuesday, February 4, 2014

  Actual Average (KGAG) Record (KGAG)
Temperature  
Mean Temperature 23 °F -  
Max Temperature 32 °F 48 °F 78 °F (1963)
Min Temperature 12 °F 22 °F -4 °F (1989)
Degree Days  
Heating Degree Days 42    
Moisture  
Dew Point 25 °F    
Average Humidity 90    
Maximum Humidity 100    
Minimum Humidity 79    
Precipitation  
Precipitation 0.18 in - - ()
Sea Level Pressure  
Sea Level Pressure 29.99 in    
Wind  
Wind Speed 10 mph (NE)    
Max Wind Speed 26 mph    
Max Gust Speed 31 mph    
Visibility 5 miles    
Events Snow    
Averages and records for this station are not official NWS values.
T = Trace of Precipitation, MM = Missing Value Source: NWS Daily Summary

Daily Weather History Graph

Daily Weather History Graph

Search for Another Location

Airport or City:

Trip Planner

Search our weather history database for the weather conditions in past years. The results will help you decide how hot, cold, wet, or windy it might be!

Date:

Astronomy

Feb. 04, 2014 Rise Set
Actual Time 7:36 AM CST 6:07 PM CST
Civil Twilight 7:10 AM CST 6:34 PM CST
Nautical Twilight 6:39 AM CST 7:05 PM CST
Astronomical Twilight 6:09 AM CST 7:35 PM CST
Moon 10:26 AM CST (2/4) 11:51 PM CST (2/4)
Length of Visible Light 11h 24m
Length of Day
10h 30m
Waxing Crescent, 29% of the Moon is Illuminated
Feb 4
Waxing Crescent
Feb 6
First Quarter
Feb 14
Full
Feb 22
Last Quarter
Mar 1
New

Hourly Weather History & Observations

Time (CST) Temp. Windchill Dew Point Humidity Pressure Visibility Wind Dir Wind Speed Gust Speed Precip Events Conditions
12:15 AM 32.0 °F 24.8 °F 26.6 °F 80% 30.01 in 10.0 mi East 8.1 mph - N/A   Overcast
12:35 AM 30.2 °F 22.6 °F 28.4 °F 93% 30.01 in 4.0 mi ESE 8.1 mph - N/A   Overcast
12:55 AM 30.2 °F 23.4 °F 28.4 °F 93% 30.00 in 2.5 mi ESE 6.9 mph - N/A   Overcast
1:15 AM 32.0 °F 26.4 °F 30.2 °F 93% 30.00 in 2.5 mi East 5.8 mph - N/A   Overcast
1:35 AM 32.0 °F 24.8 °F 30.2 °F 93% 29.99 in 2.5 mi East 8.1 mph - 0.01 in   Overcast
1:55 AM 32.0 °F 24.2 °F 30.2 °F 93% 29.98 in 2.5 mi East 9.2 mph - 0.01 in   Overcast
2:15 AM 32.0 °F 27.5 °F 30.2 °F 93% 29.99 in 2.5 mi East 4.6 mph - N/A   Overcast
2:35 AM 32.0 °F 25.6 °F 30.2 °F 93% 29.98 in 2.5 mi East 6.9 mph - N/A   Overcast
2:55 AM 32.0 °F 24.8 °F 30.2 °F 93% 29.97 in 3.0 mi East 8.1 mph - 0.01 in   Overcast
3:15 AM 32.0 °F 24.8 °F 30.2 °F 93% 29.96 in 3.0 mi East 8.1 mph - N/A   Overcast
3:35 AM 32.0 °F 25.6 °F 30.2 °F 93% 29.96 in 2.5 mi East 6.9 mph - N/A   Overcast
3:55 AM 32.0 °F 24.8 °F 30.2 °F 93% 29.95 in 3.0 mi East 8.1 mph - N/A   Overcast
4:15 AM 32.0 °F 24.8 °F 30.2 °F 93% 29.94 in 4.0 mi East 8.1 mph - N/A   Overcast
4:35 AM 32.0 °F 24.2 °F 30.2 °F 93% 29.92 in 2.0 mi East 9.2 mph - N/A Snow Light Snow
4:55 AM 32.0 °F 24.8 °F 30.2 °F 93% 29.91 in 1.5 mi ENE 8.1 mph - 0.01 in Snow Light Snow
5:15 AM 32.0 °F 25.6 °F 30.2 °F 93% 29.91 in 1.2 mi ENE 6.9 mph - N/A Snow Light Snow
5:35 AM 30.2 °F 21.9 °F 28.4 °F 93% 29.91 in 1.8 mi East 9.2 mph - 0.01 in Snow Light Snow
5:55 AM 30.2 °F 21.9 °F 28.4 °F 93% 29.91 in 1.0 mi ENE 9.2 mph - 0.02 in Snow Snow
6:15 AM 30.2 °F 21.3 °F 28.4 °F 93% 29.91 in 1.2 mi ENE 10.4 mph - 0.01 in Snow Light Snow
6:35 AM 30.2 °F 21.9 °F 28.4 °F 93% 29.91 in 0.8 mi East 9.2 mph - 0.02 in Snow Snow
6:55 AM 30.2 °F 21.3 °F 28.4 °F 93% 29.91 in 0.5 mi ENE 10.4 mph - 0.04 in Snow Heavy Snow
7:15 AM 28.4 °F 17.5 °F 28.4 °F 100% 29.91 in 0.5 mi ENE 13.8 mph - 0.01 in Snow Heavy Snow
7:35 AM 28.4 °F 17.5 °F 26.6 °F 93% 29.90 in 0.5 mi ENE 13.8 mph 18.4 mph 0.01 in Snow Snow
7:55 AM 28.4 °F 18.5 °F 26.6 °F 93% 29.91 in 0.2 mi ENE 11.5 mph - 0.02 in Snow Snow
8:15 AM 26.6 °F 16.2 °F 26.6 °F 100% 29.93 in 0.2 mi ENE 11.5 mph - 0.01 in Snow Snow
8:35 AM 26.6 °F 16.8 °F 24.8 °F 93% 29.93 in 1.0 mi East 10.4 mph - 0.02 in Snow Light Snow
8:55 AM 26.6 °F 16.2 °F 24.8 °F 93% 29.92 in 1.2 mi ENE 11.5 mph - 0.02 in Snow Light Snow
9:15 AM 28.4 °F 20.4 °F 26.6 °F 93% 29.93 in 2.0 mi ENE 8.1 mph - N/A Snow Light Snow
9:35 AM 28.4 °F 19.7 °F 26.6 °F 93% 29.93 in 1.0 mi ENE 9.2 mph - 0.01 in Snow Light Snow
9:55 AM 28.4 °F 19.7 °F 24.8 °F 86% 29.92 in 1.2 mi ENE 9.2 mph - 0.01 in Snow Light Snow
10:15 AM 28.4 °F 21.2 °F 24.8 °F 86% 29.93 in 0.5 mi East 6.9 mph - N/A Snow Light Snow
10:35 AM 28.4 °F 21.2 °F 26.6 °F 93% 29.93 in 0.2 mi East 6.9 mph - 0.01 in Snow Snow
10:55 AM 28.4 °F 20.4 °F 26.6 °F 93% 29.93 in 1.2 mi East 8.1 mph - 0.02 in Snow Light Snow
11:15 AM 28.4 °F 19.7 °F 26.6 °F 93% 29.92 in 1.8 mi East 9.2 mph - N/A Snow Light Snow
11:35 AM 28.4 °F 21.2 °F 26.6 °F 93% 29.92 in 1.5 mi East 6.9 mph - N/A Snow Light Snow
11:55 AM 28.4 °F 21.2 °F 26.6 °F 93% 29.91 in 0.2 mi East 6.9 mph - N/A Snow Snow
12:15 PM 30.2 °F 25.4 °F 26.6 °F 86% 29.90 in 0.8 mi NE 4.6 mph - N/A Snow Light Snow
12:35 PM 30.2 °F 26.7 °F 26.6 °F 86% 29.90 in 1.0 mi NNE 3.5 mph - 0.01 in Snow Light Snow
12:55 PM 30.2 °F 24.3 °F 26.6 °F 86% 29.89 in 0.8 mi NE 5.8 mph - 0.02 in Snow Light Snow
1:15 PM 30.2 °F 25.4 °F 26.6 °F 86% 29.88 in 0.8 mi NNE 4.6 mph - N/A Snow Light Snow
1:35 PM 30.2 °F 23.4 °F 26.6 °F 86% 29.87 in 2.0 mi North 6.9 mph - N/A Snow Light Snow
1:55 PM 30.2 °F 23.4 °F 26.6 °F 86% 29.87 in 5.0 mi North 6.9 mph - N/A   Overcast
2:15 PM 30.2 °F 21.3 °F 26.6 °F 86% 29.88 in 7.0 mi North 10.4 mph - N/A   Overcast
2:35 PM 30.2 °F 21.3 °F 26.6 °F 86% 29.88 in 5.0 mi North 10.4 mph - N/A Snow Light Snow
2:55 PM 30.2 °F 21.3 °F 26.6 °F 86% 29.89 in 10.0 mi North 10.4 mph - N/A   Overcast
3:15 PM 30.2 °F 21.9 °F 26.6 °F 86% 29.90 in 10.0 mi North 9.2 mph - N/A   Overcast
3:35 PM 30.2 °F 22.6 °F 26.6 °F 86% 29.91 in 10.0 mi NNW 8.1 mph - N/A   Overcast
3:55 PM 30.2 °F 21.3 °F 26.6 °F 86% 29.92 in 10.0 mi NNW 10.4 mph - N/A   Overcast
4:15 PM 30.2 °F 20.8 °F 26.6 °F 86% 29.93 in 10.0 mi NNW 11.5 mph - N/A   Overcast
4:35 PM 28.4 °F 18.5 °F 26.6 °F 93% 29.94 in 10.0 mi NNW 11.5 mph 18.4 mph N/A   Overcast
4:55 PM 28.4 °F 18.0 °F 26.6 °F 93% 29.95 in 10.0 mi NNW 12.7 mph - N/A   Overcast
5:15 PM 28.4 °F 17.0 °F 26.6 °F 93% 29.95 in 10.0 mi North 15.0 mph - N/A   Overcast
5:35 PM 28.4 °F 16.2 °F 26.6 °F 93% 29.97 in 10.0 mi North 17.3 mph 20.7 mph N/A   Overcast
6:15 PM 26.6 °F 15.2 °F 23.0 °F 86% 30.00 in 7.0 mi NNW 13.8 mph 17.3 mph N/A   Overcast
6:35 PM 26.6 °F 13.4 °F 23.0 °F 86% 30.02 in 10.0 mi NNW 18.4 mph 21.9 mph N/A   Overcast
6:55 PM 24.8 °F 11.9 °F 21.2 °F 86% 30.05 in 10.0 mi NNW 16.1 mph 20.7 mph N/A   Overcast
7:15 PM 23.0 °F 9.6 °F 21.2 °F 93% 30.07 in 10.0 mi NNW 16.1 mph - N/A   Overcast
7:35 PM 23.0 °F 8.3 °F 21.2 °F 93% 30.08 in 10.0 mi NNW 19.6 mph 24.2 mph N/A   Overcast
7:55 PM 23.0 °F 10.6 °F 19.4 °F 86% 30.11 in 10.0 mi North 13.8 mph - N/A   Overcast
8:15 PM 23.0 °F 9.6 °F 19.4 °F 86% 30.13 in 10.0 mi NNW 16.1 mph 20.7 mph N/A   Overcast
8:35 PM 23.0 °F 10.6 °F 19.4 °F 86% 30.15 in 10.0 mi North 13.8 mph - N/A Snow Light Snow
8:55 PM 23.0 °F 9.6 °F 19.4 °F 86% 30.17 in 7.0 mi NNW 16.1 mph - N/A Snow Light Snow
9:15 PM 21.2 °F 7.8 °F 19.4 °F 93% 30.18 in 10.0 mi NNW 15.0 mph - N/A Snow Light Snow
9:35 PM 21.2 °F 3.9 °F 17.6 °F 86% 30.20 in 10.0 mi NNW 26.5 mph 31.1 mph N/A Snow Light Snow
9:55 PM 19.4 °F 2.5 °F 14.0 °F 80% 30.23 in 10.0 mi NNW 23.0 mph 29.9 mph N/A Snow Light Snow
10:15 PM 17.6 °F -0.3 °F 14.0 °F 86% 30.23 in 10.0 mi NNW 24.2 mph 28.8 mph N/A Snow Light Snow
10:35 PM 17.6 °F 0.5 °F 12.2 °F 79% 30.24 in 10.0 mi NNW 21.9 mph 27.6 mph N/A Snow Light Snow
10:55 PM 17.6 °F 1.7 °F 12.2 °F 79% 30.27 in 10.0 mi NNW 18.4 mph - N/A Snow Light Snow
11:15 PM 15.8 °F -2.3 °F 10.4 °F 79% 30.28 in 10.0 mi NNW 23.0 mph 29.9 mph N/A Snow Light Snow
11:35 PM 14.0 °F -3.0 °F 8.6 °F 79% 30.30 in 10.0 mi NNW 18.4 mph 31.1 mph N/A   Overcast
11:55 PM 12.2 °F -4.3 °F 8.6 °F 85% 30.32 in 10.0 mi NNW 16.1 mph 26.5 mph N/A   Scattered Clouds